Regional Weather Roundup
Issued by NWS Wakefield, VA

Home | Current Version | Previous Version | Graphics & Text | Print | Product List | Glossary On
Versions: 1 2 3 4 5 6 7 8 9 10 11 12 13 14 15 16 17 18 19 20 21 22 23 24 25 26 27 28 29 30 31 32 33 34 35 36 37 38 39 40 41 42 43 44 45 46 47 48 49 50
000
ASUS41 KAKQ 050915
RWRAKQ

REGIONAL WEATHER ROUNDUP
NATIONAL WEATHER SERVICE WAKEFIELD VA
500 AM EDT TUE MAY 05 2015

Note: "fair" indicates few or no clouds below 12,000 feet with no
significant weather and/or obstructions to visibility. * = Denotes
station may not report precipitation (e.g., rain,snow,etc.),
thunder or fog.

VAZ042-051-052>054-056-051000-
NORTHERN VIRGINIA

CITY           SKY/WX    TMP DP  RH WIND       PRES   REMARKS
WASH NATIONAL  PTCLDY    65  54  67 SW7       30.21R
DULLES         PTCLDY    61  53  75 S7        30.21S
FORT BELVOIR   CLEAR     59  55  85 CALM      30.21R
QUANTICO       CLEAR     67  53  61 SW3       30.22S
FREDERICKSBRG* CLEAR     66  55  68 SW5       30.21S
STAFFORD*      CLEAR     64  51  63 SW5       30.25S
WARRENTON      CLEAR     62  55  79 SW3       30.21S
CULPEPER*      NOT AVBL
MANASSAS*      CLEAR     57  54  88 CALM      30.22R
LEESBURG*      CLEAR     59  55  88 W5        30.22S
WINCHESTER     PTCLDY    59  46  63 CALM      30.21S
FRONT ROYAL*   FAIR      57  52  82 S6        30.21S
LURAY*         FAIR      55  55 100 CALM      30.23R
$$

VAZ048-049-060>072-079>083-051000-
CENTRAL AND SOUTH CENTRAL VIRGINIA

CITY           SKY/WX    TMP DP  RH WIND       PRES   REMARKS
RICHMOND       CLEAR     62  54  74 S8        30.26S
CHESTERFIELD*  FAIR      63  46  55 S7        30.27F
PETERSBURG*    CLEAR     62  55  77 S6        30.28S
HANOVER        CLEAR     64  54  69 S10       30.26S
TAPPAHANNOCK*  CLEAR     64  51  64 S7        30.25S
QUINTON*       FAIR      62  55  77 SW5       30.26S
CHARLOTTSVILLE CLEAR     60  53  77 S5        30.22S
GORDONSVILLE*  FAIR      55  52  90 CALM      30.22S
ORANGE*        CLEAR     59  54  82 CALM      30.24S
LOUISA*        CLEAR     63  54  72 S3        30.22S
BUMPASS*       FAIR      62  53  73 SW7       30.23S
FARMVILLE*     CLEAR     62  54  75 SW3       30.24F
CREWE*         FAIR      62  54  74 S6        30.26F
FORT PICKETT*  NOT AVBL
CHASE CITY*    FAIR      62  58  86 S3        30.29S
CLARKSVILLE*   FAIR      59  54  82 S7        30.28S
SOUTH HILL*    CLEAR     57  54  88 S7        30.35S
LAWRENCEVILLE* FAIR      58  55  87 S5        30.29S
EMPORIA*       CLEAR     57  52  82 CALM      30.31F
$$

VAZ088>098-051000-
SOUTHEAST VIRGINIA

CITY           SKY/WX    TMP DP  RH WIND       PRES   REMARKS
NORFOLK        CLEAR     62  49  62 SW12      30.29F
VIRGINIA BEACH PTCLDY    66  50  56 SW10      30.29F
NORFOLK NAVAL  CLEAR     68  49  50 SW8       30.30F
WEST POINT*    CLEAR     66  52  59 S6        30.28F
SALUDA*        FAIR      65  52  62 SW10G20   30.25F
NEWPORT NEWS   CLEAR     67  50  54 SW10      30.29S
LANGLEY AFB    CLEAR     65  50  58 SW15      30.27F
FORT EUSTIS    CLEAR     64  51  64 S5        30.27S
WILLIAMSBURG*  CLEAR     66  54  63 SW8       30.29F
HR EXEC AP*    FAIR      63  48  59 SW7       30.31F
FRANKLIN*      CLEAR     59  50  71 SW5       30.31S
WAKEFIELD      CLEAR     62  51  67 SW3       30.29S
$$

VAZ020-022-025-037-045-051000-
WEST CENTRAL AND SOUTHWEST VIRGINIA

CITY           SKY/WX    TMP DP  RH WIND       PRES   REMARKS
STAUNTON*      CLEAR     52  49  89 CALM      30.26S
WAYNESBORO*    FAIR      54  51  87 CALM      30.25S
HOT SPRINGS VA CLEAR     60  43  53 W8        30.33S
LYNCHBURG      CLEAR     56  52  86 SW3       30.27S
DANVILLE       CLEAR     60  53  77 S6        30.29S
SOUTH BOSTON*  FAIR      59  53  80 S6        30.28S
MARTINSVILLE   CLEAR     59  58  96 CALM      30.30F
ROANOKE        CLEAR     60  51  72 CALM      30.28F
BLACKSBURG     CLEAR     51  49  92 CALM      30.34S
DUBLIN*        CLEAR     52  51  96 CALM      30.33R
MARION*        CLEAR     49  47  92 CALM      30.36R
HILLSVILLE*    CLEAR     58  49  74 S5        30.34S
RICHLANDS*     FAIR      58  43  57 CALM      30.33S
WISE*          CLEAR     57  43  58 SW5       30.35R
ABINGDON*      CLEAR     54  49  85 CALM      30.33R
$$

MDZ021>025-VAZ099-100-051000-
SOUTHERN MARYLAND AND THE DELMARVA PENINSULA

CITY           SKY/WX    TMP DP  RH WIND       PRES   REMARKS
PATUXENT RIVER CLEAR     65  54  67 SW17G23   30.21S
BAY BRIDGE APT   N/A    N/A N/A N/A S6        30.20S
LEONARDTOWN    CLEAR     64  52  63 SW8       30.23F
DOVER          CLEAR     66  52  59 SW7       30.16F
GEORGETOWN     CLEAR     65  54  67 SW17      30.22S
EASTON         CLEAR     64  56  76 SW6       30.24S
CAMBRIDGE      CLEAR     64  54  68 S6        30.21F
SALISBURY      CLEAR     62  53  72 SW12      30.23F
OCEAN CITY     CLEAR     65  53  65 SW14      30.24S
WALLOPS ISLAND CLEAR     66  49  54 SW12      30.25F
ACCOMACK*      CLEAR     64  41  42 SW14G22   30.27S
$$

NCZ012>017-030>032-051000-
NORTH CENTRAL AND EASTERN NORTH CAROLINA

CITY           SKY/WX    TMP DP  RH WIND       PRES   REMARKS
ROANOKE RAPIDS FAIR      55  52  88 S5        30.31S
RALEIGH        PTCLDY    58  53  84 SW5       30.32S
ELIZABETH CITY PTCLDY    58  53  84 SW5       30.32S
AHOSKIE*       CLEAR     56  50  79 CALM      30.32S
EDENTON*       CLEAR     60  55  82 SW5       30.33S
CURRITUCK*     PTCLDY    62  51  68 SW3       30.32F
KILL DEVIL HLS CLEAR     61  53  75 SW5       30.32S
MANTEO         CLEAR     60  53  79 SW3       30.33F
CAPE HATTERAS  CLEAR     60  57  89 SW5       30.34S
TARBORO*       FAIR      53  51  95 CALM      30.33S
GOLDSBORO      CLEAR     54  51  87 CALM      30.31S
WASHINGTON     CLEAR     55  53  93 CALM      30.34R
GREENVILLE     CLEAR     54  52  94 CALM      30.33S
NEW BERN       CLEAR     53  50  89 CALM      30.35R
WILMINGTON     CLEAR     54  52  93 CALM      30.33S
$$

VAZ048-051000-
ELSEWHERE

CITY           SKY/WX    TMP DP  RH WIND       PRES   REMARKS
HARRISBURG PA  MOCLDY    60  52  74 CALM      30.17S
BALTIMORE      CLEAR     65  53  65 W6        30.18S
ANNAPOLIS      CLEAR     67  51  56 VRB3      30.18S
ANDREWS AFB    CLEAR     65  53  65 SW9       30.20S
PHILADELPHIA   PTCLDY    63  51  65 SW7       30.18S
HENDERSON NC   CLEAR     59  52  77 S9        30.30F
GREENSBORO     CLEAR     60  54  80 SW9       30.30S
ROCKY MOUNT    CLEAR     56  52  86 CALM      30.32S
$$

VAZ100-051000-
MARINE

STATION/POSITION TIME  TEMP    WIND        PRES    WAVE   SWELL
                       AIR SEA DIR/SP/G            HT/PER HT/PER
                 (UTC) (F)     (DEG/KT/KT) (MB)    (FT/S) (FT/S)
BRANDYWINE LGT   0800   64 55  230/ 18/ 19 1022.5F
CAPE MAY NJ      0800   64 61  200/  9/ 16 1022.5F
LEWES DE         0800   66 55  230/  9/ 14 1022.7F
15NM E FENWICK I 0850   57 53              1023.3F   3/ 5
OCEAN-CITY-INLET 0800   65 54  240/ 10/ 14 1023.6F
WACHAPREAGUE VA  0800   65 67  240/  6/ 10 1025.1F
THOMAS POINT MD  0900   67 58  220/ 10/ 11 1023.1S
GOOSES REEF MD   0900   64 58                N/A     2/ 2
COVE POINT MD    0800   67     250/ 17/ 24 1023.2F
SOLOMONS ISLAND  0800      61                N/A
BISHOPS HEAD MD  0800   65 64  200/ 12/ 15 1023.3F
PINEY POINT MD   0800          240/  9/ 13   N/A
CAMBRIDGE MD     0800   65 62  190/  5/ 11 1022.9F
LEWISETTA VA     0800   66 66              1023.5F
RAPPAHANNOCK LGT 0800          190/ 15/ 17 1025.5S
YORK RVR RNG VA  0800   66     240/ 15/ 19 1024.7R
YORKTOWN VA      0800   66 61  230/ 12/ 20 1024.8S
JAMESTOWN VA     0900   65 65  230/ 10/ 16 1024.3S
DOMINION TERM VA 0800   65     230/ 11/ 14 1025.9R
KIPTOPEKE VA     0800      65  230/  8/ 11   N/A
CHES BAY BRIDGE  0800   65 60  210/ 14/ 16 1025.3R
CAPE HENRY VA    0800   67     220/ 11/ 19 1024.4F
CHESAPEAKE LGHT  0800   63     230/ 17/ 18 1026.4R
WILLOUBY STN VA  0800   65     220/ 14/ 15 1026.4S
S CRANEY ISL VA  0800          220/  6/ 10 1025.9S
CAPE HENRY BUOY  0828      59                N/A     2/10   2/11
1ST LANDING BUOY 0900      59              1048.4R   2/ 3
CAPE CHARLES BUO 0826      58                N/A     3/ 9   2/ 9
OFFSHORE WE BUOY 0811      53                N/A     3/ 7   3/ 7
64NM E OF VA BCH 0850   61 60  230/ 12/ 14 1026.2S   3/11   3/11
DUCK PIER NC     0800   64 53  230/ 10/ 12 1025.8S
44056 DUCK FRF   0811      56                N/A     2/ 9   2/11
OREGON INLET NC  0800   66 67  210/  7/  8 1027.0F
HATTERAS NC      0800   66 64  210/  5/  6 1026.8S
DIAMOND SHLS NC  0850   73 77  190/ 12/ 14 1027.3R   3/ 9   2/ 9
CAPE LOOKOUT NC  0900   66     170/  2/  3 1026.9S
$$



USA.gov is the U.S. government's official web portal to all federal, state and local government web resources and services.